| time (UTC) | temp F | wind direction | speed knots | gust knots | rain 1hr in | rain 24hr in | rain mn in | humidity % | barometer mb |
| 20260903070023 | 83 | 104 | 6.1 | 12.2 | 0.00 | 0.00 | 0.00 | 51 | 1014.5 |
| 20260903065523 | 84 | 100 | 2.6 | 11.3 | 0.00 | 0.00 | 0.00 | 51 | 1014.5 |
| 20260903065020 | 84 | 145 | 7.0 | 11.3 | 0.00 | 0.00 | 0.00 | 51 | 1014.4 |
| 20260903064519 | 84 | 107 | 6.1 | 10.4 | 0.00 | 0.00 | 0.00 | 51 | 1014.4 |
| 20260903064017 | 83 | 136 | 4.3 | 12.2 | 0.00 | 0.00 | 0.00 | 51 | 1014.5 |
| 20260903063516 | 83 | 45 | 8.7 | 12.2 | 0.00 | 0.00 | 0.00 | 51 | 1014.4 |
| 20260903063026 | 83 | 102 | 5.2 | 12.2 | 0.00 | 0.00 | 0.00 | 52 | 1014.5 |
| 20260903062513 | 83 | 85 | 6.1 | 15.6 | 0.00 | 0.00 | 0.00 | 53 | 1014.5 |
| 20260903062015 | 82 | 138 | 2.6 | 15.6 | 0.00 | 0.00 | 0.00 | 54 | 1014.5 |
| 20260903061512 | 82 | 114 | 2.6 | 11.3 | 0.00 | 0.00 | 0.00 | 54 | 1014.4 |
| 20260903061012 | 82 | 99 | 4.3 | 11.3 | 0.00 | 0.00 | 0.00 | 54 | 1014.4 |
| 20260903060508 | 82 | 82 | 7.0 | 12.2 | 0.00 | 0.00 | 0.00 | 55 | 1014.4 |
| 20260903060022 | 81 | 105 | 5.2 | 13.9 | 0.00 | 0.00 | 0.00 | 55 | 1014.3 |
| 20260903055509 | 81 | 45 | 7.0 | 13.9 | 0.00 | 0.00 | 0.00 | 56 | 1014.3 |
| 20260903055004 | 80 | 74 | 7.0 | 13.9 | 0.00 | 0.00 | 0.00 | 57 | 1014.2 |
| 20260903054504 | 80 | 140 | 7.8 | 13.9 | 0.00 | 0.00 | 0.00 | 57 | 1014.3 |
| 20260903054003 | 80 | 96 | 7.8 | 14.8 | 0.00 | 0.00 | 0.00 | 57 | 1014.2 |
| 20260903053502 | 80 | 89 | 6.1 | 14.8 | 0.00 | 0.00 | 0.00 | 57 | 1014.4 |
| 20260903053002 | 80 | 74 | 8.7 | 14.8 | 0.00 | 0.00 | 0.00 | 57 | 1014.4 |
| 20260903052503 | 80 | 80 | 6.1 | 15.6 | 0.00 | 0.00 | 0.00 | 57 | 1014.5 |
| 20260903052100 | 80 | 109 | 8.7 | 15.6 | 0.00 | 0.00 | 0.00 | 57 | 1014.5 |
| 20260903051607 | 80 | 90 | 8.7 | 15.6 | 0.00 | 0.00 | 0.00 | 56 | 1014.6 |
| 20260903051057 | 80 | 98 | 6.1 | 13.0 | 0.00 | 0.00 | 0.00 | 55 | 1014.6 |
| 20260903050559 | 80 | 113 | 5.2 | 13.9 | 0.00 | 0.00 | 0.00 | 55 | 1014.5 |
| 20260903050054 | 80 | 92 | 7.8 | 13.9 | 0.00 | 0.00 | 0.00 | 54 | 1014.6 |
| 20260903045554 | 80 | 78 | 7.0 | 12.2 | 0.00 | 0.00 | 0.00 | 54 | 1014.5 |
| 20260903045052 | 80 | 111 | 6.1 | 11.3 | 0.00 | 0.00 | 0.00 | 53 | 1014.4 |
| 20260903044552 | 81 | 92 | 6.1 | 14.8 | 0.00 | 0.00 | 0.00 | 52 | 1014.3 |
| 20260903044050 | 81 | 109 | 5.2 | 14.8 | 0.00 | 0.00 | 0.00 | 51 | 1014.3 |
| 20260903043548 | 81 | 92 | 7.0 | 15.6 | 0.00 | 0.00 | 0.00 | 50 | 1014.4 |
| 20260903043047 | 81 | 82 | 10.4 | 15.6 | 0.00 | 0.00 | 0.00 | 50 | 1014.2 |
| 20260903042546 | 81 | 123 | 5.2 | 13.9 | 0.00 | 0.00 | 0.00 | 50 | 1014.2 |
| 20260903042045 | 81 | 38 | 6.1 | 9.6 | 0.00 | 0.00 | 0.00 | 49 | 1014.1 |
| 20260903041544 | 81 | 109 | 6.1 | 8.7 | 0.00 | 0.00 | 0.00 | 49 | 1014.2 |
| 20260903041043 | 81 | 113 | 1.7 | 8.7 | 0.00 | 0.00 | 0.00 | 49 | 1014.2 |
| 20260903040542 | 81 | 121 | 5.2 | 8.7 | 0.00 | 0.00 | 0.00 | 48 | 1014.2 |
| 20260903040057 | 81 | 158 | 2.6 | 6.1 | 0.00 | 0.00 | 0.00 | 47 | 1014.2 |
| 20260903035540 | 81 | 152 | 3.5 | 6.1 | 0.00 | 0.00 | 0.00 | 46 | 1014.1 |
| 20260903035040 | 82 | 172 | 3.5 | 5.2 | 0.00 | 0.00 | 0.00 | 46 | 1014.0 |
| 20260903034542 | 82 | 167 | 2.6 | 6.1 | 0.00 | 0.00 | 0.00 | 45 | 1014.0 |
| 20260903034041 | 82 | 140 | 2.6 | 6.1 | 0.00 | 0.00 | 0.00 | 45 | 1014.0 |
| 20260903033539 | 82 | 123 | 2.6 | 7.0 | 0.00 | 0.00 | 0.00 | 44 | 1014.0 |
| 20260903033039 | 82 | 98 | 2.6 | 7.0 | 0.00 | 0.00 | 0.00 | 44 | 1014.0 |
| 20260903032539 | 82 | 111 | 2.6 | 6.1 | 0.00 | 0.00 | 0.00 | 44 | 1014.0 |
| 20260903032038 | 82 | 69 | 3.5 | 7.8 | 0.00 | 0.00 | 0.00 | 44 | 1014.1 |
| 20260903031538 | 82 | 88 | 3.5 | 7.8 | 0.00 | 0.00 | 0.00 | 44 | 1014.1 |
| 20260903031038 | 82 | 360 | 3.5 | 9.6 | 0.00 | 0.00 | 0.00 | 44 | 1014.0 |
| 20260903030538 | 82 | 67 | 1.7 | 12.2 | 0.00 | 0.00 | 0.00 | 44 | 1014.0 |
| 20260903030039 | 82 | 60 | 5.2 | 12.2 | 0.00 | 0.00 | 0.00 | 43 | 1014.0 |
| 20260903025537 | 82 | 9 | 3.5 | 9.6 | 0.00 | 0.00 | 0.00 | 43 | 1014.1 |
| 20260903025039 | 82 | 57 | 4.3 | 9.6 | 0.00 | 0.00 | 0.00 | 43 | 1014.0 |
| 20260903024537 | 82 | 57 | 4.3 | 8.7 | 0.00 | 0.00 | 0.00 | 43 | 1014.0 |
| 20260903024036 | 82 | 65 | 4.3 | 8.7 | 0.00 | 0.00 | 0.00 | 43 | 1014.1 |
| 20260903023535 | 82 | 22 | 2.6 | 10.4 | 0.00 | 0.00 | 0.00 | 43 | 1014.2 |
| 20260903023050 | 82 | 38 | 5.2 | 11.3 | 0.00 | 0.00 | 0.00 | 43 | 1014.2 |
| 20260903022536 | 82 | 49 | 6.1 | 11.3 | 0.00 | 0.00 | 0.00 | 43 | 1014.2 |
| 20260903022036 | 82 | 40 | 6.1 | 13.0 | 0.00 | 0.00 | 0.00 | 43 | 1014.1 |
| 20260903021535 | 82 | 55 | 6.1 | 13.0 | 0.00 | 0.00 | 0.00 | 43 | 1014.1 |
| 20260903021035 | 82 | 73 | 7.0 | 12.2 | 0.00 | 0.00 | 0.00 | 43 | 1014.2 |
| 20260903020534 | 82 | 22 | 6.1 | 12.2 | 0.00 | 0.00 | 0.00 | 43 | 1014.1 |
| 20260903020034 | 82 | 30 | 8.7 | 13.0 | 0.00 | 0.00 | 0.00 | 42 | 1014.1 |
| 20260903015534 | 82 | 22 | 6.1 | 13.0 | 0.00 | 0.00 | 0.00 | 43 | 1014.1 |
| 20260903015034 | 82 | 79 | 5.2 | 10.4 | 0.00 | 0.00 | 0.00 | 43 | 1014.1 |
| 20260903014544 | 82 | 75 | 6.1 | 10.4 | 0.00 | 0.00 | 0.00 | 43 | 1014.1 |
| 20260903014034 | 81 | 43 | 2.6 | 9.6 | 0.00 | 0.00 | 0.00 | 43 | 1014.1 |
| 20260903013533 | 81 | 80 | 2.6 | 10.4 | 0.00 | 0.00 | 0.00 | 43 | 1014.1 |
| 20260903013042 | 81 | 85 | 6.1 | 10.4 | 0.00 | 0.00 | 0.00 | 44 | 1014.1 |
| 20260903012532 | 81 | 128 | 3.5 | 8.7 | 0.00 | 0.00 | 0.00 | 44 | 1014.2 |
| 20260903012033 | 81 | 123 | 4.3 | 9.6 | 0.00 | 0.00 | 0.00 | 44 | 1014.1 |
| 20260903011532 | 81 | 127 | 3.5 | 9.6 | 0.00 | 0.00 | 0.00 | 44 | 1014.2 |
| 20260903011032 | 81 | 123 | 2.6 | 8.7 | 0.00 | 0.00 | 0.00 | 44 | 1014.2 |
| 20260903010532 | 81 | 98 | 3.5 | 9.6 | 0.00 | 0.00 | 0.00 | 44 | 1014.2 |
| 20260903010042 | 81 | 96 | 5.2 | 11.3 | 0.00 | 0.00 | 0.00 | 44 | 1014.2 |
| 20260903005530 | 81 | 98 | 7.8 | 11.3 | 0.00 | 0.00 | 0.00 | 44 | 1014.2 |
| 20260903005032 | 81 | 70 | 5.2 | 11.3 | 0.00 | 0.00 | 0.00 | 43 | 1014.2 |
| 20260903004530 | 82 | 78 | 7.0 | 12.2 | 0.00 | 0.00 | 0.00 | 43 | 1014.2 |
| 20260903004030 | 82 | 81 | 7.8 | 13.0 | 0.00 | 0.00 | 0.00 | 43 | 1014.3 |
| 20260903003530 | 82 | 75 | 7.8 | 13.0 | 0.00 | 0.00 | 0.00 | 43 | 1014.3 |
| 20260903003028 | 82 | 65 | 7.0 | 14.8 | 0.00 | 0.00 | 0.00 | 43 | 1014.2 |
| 20260903002531 | 82 | 55 | 7.0 | 12.2 | 0.00 | 0.00 | 0.00 | 43 | 1014.2 |
| 20260903002032 | 82 | 71 | 5.2 | 12.2 | 0.00 | 0.00 | 0.00 | 43 | 1014.2 |
| 20260903001531 | 82 | 125 | 7.8 | 12.2 | 0.00 | 0.00 | 0.00 | 43 | 1014.2 |
| 20260903001027 | 82 | 123 | 5.2 | 13.0 | 0.00 | 0.00 | 0.00 | 43 | 1014.2 |
| 20260903000527 | 82 | 109 | 7.8 | 15.6 | 0.00 | 0.00 | 0.00 | 42 | 1014.2 |
| 20260903000027 | 83 | 93 | 9.6 | 15.6 | 0.00 | 0.00 | 0.00 | 42 | 1014.2 |
| 20260902235526 | 83 | 53 | 10.4 | 17.4 | 0.00 | 0.00 | 0.00 | 42 | 1014.2 |
| 20260902235025 | 82 | 82 | 8.7 | 17.4 | 0.00 | 0.00 | 0.00 | 43 | 1014.2 |
| 20260902234540 | 82 | 77 | 8.7 | 12.2 | 0.00 | 0.00 | 0.00 | 43 | 1014.2 |
| 20260902234027 | 82 | 83 | 8.7 | 12.2 | 0.00 | 0.00 | 0.00 | 43 | 1014.2 |
| 20260902233524 | 82 | 78 | 7.8 | 13.9 | 0.00 | 0.00 | 0.00 | 43 | 1014.4 |
| 20260902233024 | 82 | 51 | 5.2 | 13.9 | 0.00 | 0.00 | 0.00 | 43 | 1014.4 |
| 20260902232527 | 82 | 78 | 7.0 | 14.8 | 0.00 | 0.00 | 0.00 | 43 | 1014.4 |
| 20260902232023 | 83 | 81 | 8.7 | 14.8 | 0.00 | 0.00 | 0.00 | 42 | 1014.4 |
| 20260902231532 | 83 | 96 | 7.8 | 14.8 | 0.00 | 0.00 | 0.00 | 42 | 1014.3 |
| 20260902231024 | 83 | 98 | 7.0 | 14.8 | 0.00 | 0.00 | 0.00 | 42 | 1014.3 |
| 20260902230522 | 83 | 81 | 8.7 | 13.9 | 0.00 | 0.00 | 0.00 | 42 | 1014.4 |
| 20260902230022 | 83 | 88 | 8.7 | 16.5 | 0.00 | 0.00 | 0.00 | 42 | 1014.4 |
| 20260902225521 | 83 | 69 | 7.8 | 16.5 | 0.00 | 0.00 | 0.00 | 42 | 1014.5 |
| 20260902225021 | 83 | 89 | 10.4 | 15.6 | 0.00 | 0.00 | 0.00 | 42 | 1014.4 |
| 20260902224519 | 83 | 88 | 10.4 | 15.6 | 0.00 | 0.00 | 0.00 | 42 | 1014.5 |
| 20260902224018 | 82 | 69 | 9.6 | 13.9 | 0.00 | 0.00 | 0.00 | 42 | 1014.5 |
| 20260902223517 | 82 | 94 | 7.8 | 13.0 | 0.00 | 0.00 | 0.00 | 43 | 1014.5 |
| 20260902223016 | 81 | 105 | 7.0 | 13.0 | 0.00 | 0.00 | 0.00 | 44 | 1014.6 |
| 20260902222515 | 80 | 113 | 2.6 | 4.3 | 0.00 | 0.00 | 0.00 | 44 | 1014.7 |
| 20260902222015 | 80 | 65 | 1.7 | 5.2 | 0.00 | 0.00 | 0.00 | 45 | 1014.8 |
| 20260902221517 | 80 | 71 | 3.5 | 5.2 | 0.00 | 0.00 | 0.00 | 44 | 1014.8 |
| 20260902221012 | 80 | 61 | 2.6 | 5.2 | 0.00 | 0.00 | 0.00 | 44 | 1014.9 |
| 20260902220511 | 81 | 49 | 2.6 | 5.2 | 0.00 | 0.00 | 0.00 | 43 | 1015.0 |
| 20260902220020 | 81 | 42 | 1.7 | 4.3 | 0.00 | 0.00 | 0.00 | 43 | 1014.9 |
| 20260902215509 | 81 | 28 | 1.7 | 7.0 | 0.00 | 0.00 | 0.00 | 42 | 1015.0 |
| 20260902215011 | 82 | 59 | 2.6 | 7.0 | 0.00 | 0.00 | 0.00 | 42 | 1015.0 |
| 20260902214509 | 82 | 55 | 2.6 | 6.1 | 0.00 | 0.00 | 0.00 | 42 | 1015.0 |
| 20260902214006 | 83 | 30 | 2.6 | 7.8 | 0.00 | 0.00 | 0.00 | 41 | 1015.0 |
| 20260902213504 | 83 | 77 | 2.6 | 9.6 | 0.00 | 0.00 | 0.00 | 41 | 1015.0 |
| 20260902213002 | 83 | 72 | 3.5 | 9.6 | 0.00 | 0.00 | 0.00 | 41 | 1015.0 |
| 20260902212502 | 82 | 85 | 5.2 | 7.8 | 0.00 | 0.00 | 0.00 | 41 | 1015.0 |
| 20260902212003 | 82 | 87 | 4.3 | 7.8 | 0.00 | 0.00 | 0.00 | 42 | 1015.1 |
| 20260902211603 | 82 | 75 | 5.2 | 7.8 | 0.00 | 0.00 | 0.00 | 42 | 1015.1 |
| 20260902211101 | 81 | 47 | 3.5 | 7.0 | 0.00 | 0.00 | 0.00 | 43 | 1015.1 |
| 20260902210604 | 81 | 17 | 2.6 | 3.5 | 0.00 | 0.00 | 0.00 | 43 | 1015.2 |
| 20260902210058 | 82 | 350 | 2.6 | 3.5 | 0.00 | 0.00 | 0.00 | 42 | 1015.2 |
| 20260902205557 | 82 | 360 | 1.7 | 4.3 | 0.00 | 0.00 | 0.00 | 42 | 1015.2 |
| 20260902205101 | 83 | 74 | 0.0 | 5.2 | 0.00 | 0.00 | 0.00 | 41 | 1015.2 |
| 20260902204557 | 83 | 71 | 1.7 | 7.0 | 0.00 | 0.00 | 0.00 | 41 | 1015.2 |
| 20260902204056 | 83 | 96 | 4.3 | 7.0 | 0.00 | 0.00 | 0.00 | 41 | 1015.1 |
| 20260902203556 | 83 | 69 | 1.7 | 3.5 | 0.00 | 0.00 | 0.00 | 41 | 1015.2 |
| 20260902203056 | 83 | 33 | 0.9 | 2.6 | 0.00 | 0.00 | 0.00 | 41 | 1015.2 |
| 20260902202556 | 83 | 19 | 0.0 | 4.3 | 0.00 | 0.00 | 0.00 | 41 | 1015.2 |
| 20260902202056 | 83 | 18 | 1.7 | 4.3 | 0.00 | 0.00 | 0.00 | 41 | 1015.3 |
| 20260902201556 | 83 | 355 | 2.6 | 4.3 | 0.00 | 0.00 | 0.00 | 41 | 1015.3 |
| 20260902201055 | 83 | 355 | 2.6 | 4.3 | 0.00 | 0.00 | 0.00 | 41 | 1015.3 |
| 20260902200555 | 83 | 29 | 1.7 | 4.3 | 0.00 | 0.00 | 0.00 | 41 | 1015.3 |
| 20260902200055 | 83 | 17 | 1.7 | 3.5 | 0.00 | 0.00 | 0.00 | 40 | 1015.4 |
| 20260902195558 | 84 | 360 | 0.0 | 2.6 | 0.00 | 0.00 | 0.00 | 40 | 1015.4 |
| 20260902195055 | 83 | 360 | 1.7 | 3.5 | 0.00 | 0.00 | 0.00 | 40 | 1015.3 |
| 20260902194555 | 83 | 355 | 1.7 | 3.5 | 0.00 | 0.00 | 0.00 | 40 | 1015.4 |
| 20260902194054 | 83 | 355 | 0.0 | 2.6 | 0.00 | 0.00 | 0.00 | 40 | 1015.5 |
| 20260902193554 | 83 | 355 | 0.0 | 2.6 | 0.00 | 0.00 | 0.00 | 40 | 1015.5 |
| 20260902193055 | 83 | 355 | 0.9 | 2.6 | 0.00 | 0.00 | 0.00 | 40 | 1015.5 |
| 20260902192553 | 84 | 331 | 1.7 | 2.6 | 0.00 | 0.00 | 0.00 | 40 | 1015.5 |
| 20260902192056 | 84 | 321 | 0.9 | 2.6 | 0.00 | 0.00 | 0.00 | 39 | 1015.5 |
| 20260902191554 | 84 | 328 | 0.0 | 0.9 | 0.00 | 0.00 | 0.00 | 39 | 1015.4 |
| 20260902191053 | 84 | 331 | 0.0 | 2.6 | 0.00 | 0.00 | 0.00 | 39 | 1015.5 |
| 20260902190553 | 84 | 331 | 0.0 | 2.6 | 0.00 | 0.00 | 0.00 | 39 | 1015.4 |
| 20260902190053 | 84 | 323 | 0.9 | 2.6 | 0.00 | 0.00 | 0.00 | 39 | 1015.3 |
| 20260902185553 | 84 | 342 | 0.0 | 2.6 | 0.00 | 0.00 | 0.00 | 39 | 1015.4 |
| 20260902185057 | 84 | 340 | 0.0 | 2.6 | 0.00 | 0.00 | 0.00 | 39 | 1015.4 |
| 20260902184552 | 85 | 309 | 0.9 | 7.8 | 0.00 | 0.00 | 0.00 | 38 | 1015.3 |
| 20260902184052 | 85 | 55 | 0.9 | 10.4 | 0.00 | 0.00 | 0.00 | 38 | 1015.3 |
| 20260902183552 | 85 | 77 | 3.5 | 8.7 | 0.00 | 0.00 | 0.00 | 38 | 1015.3 |
| 20260902183052 | 85 | 88 | 2.6 | 7.0 | 0.00 | 0.00 | 0.00 | 38 | 1015.2 |
| 20260902182551 | 85 | 74 | 1.7 | 7.8 | 0.00 | 0.00 | 0.00 | 38 | 1015.1 |
| 20260902182051 | 85 | 88 | 3.5 | 7.0 | 0.00 | 0.00 | 0.00 | 38 | 1015.1 |
| 20260902181556 | 85 | 103 | 3.5 | 7.0 | 0.00 | 0.00 | 0.00 | 38 | 1015.1 |
| 20260902181050 | 85 | 90 | 3.5 | 9.6 | 0.00 | 0.00 | 0.00 | 37 | 1015.0 |
| 20260902180550 | 85 | 117 | 4.3 | 9.6 | 0.00 | 0.00 | 0.00 | 37 | 1015.1 |
| 20260902180056 | 85 | 145 | 4.3 | 7.8 | 0.00 | 0.00 | 0.00 | 37 | 1015.1 |
| 20260902175551 | 86 | 105 | 1.7 | 6.1 | 0.00 | 0.00 | 0.00 | 37 | 1015.0 |
| 20260902175050 | 86 | 111 | 1.7 | 7.8 | 0.00 | 0.00 | 0.00 | 37 | 1015.1 |
| 20260902174558 | 86 | 113 | 3.5 | 8.7 | 0.00 | 0.00 | 0.00 | 37 | 1015.0 |
| 20260902174049 | 86 | 100 | 2.6 | 8.7 | 0.00 | 0.00 | 0.00 | 37 | 1015.0 |
| 20260902173551 | 86 | 97 | 3.5 | 7.8 | 0.00 | 0.00 | 0.00 | 37 | 1015.0 |
| 20260902173050 | 86 | 116 | 3.5 | 7.8 | 0.00 | 0.00 | 0.00 | 36 | 1015.0 |
| 20260902172549 | 87 | 53 | 4.3 | 7.8 | 0.00 | 0.00 | 0.00 | 36 | 1015.0 |
| 20260902172051 | 87 | 95 | 3.5 | 6.1 | 0.00 | 0.00 | 0.00 | 36 | 1015.0 |
| 20260902171559 | 87 | 109 | 1.7 | 7.8 | 0.00 | 0.00 | 0.00 | 36 | 1015.0 |
| 20260902171053 | 87 | 65 | 3.5 | 7.8 | 0.00 | 0.00 | 0.00 | 36 | 1014.9 |
| 20260902170548 | 87 | 65 | 2.6 | 8.7 | 0.00 | 0.00 | 0.00 | 36 | 1014.9 |
| 20260902170048 | 88 | 66 | 3.5 | 8.7 | 0.00 | 0.00 | 0.00 | 35 | 1014.8 |
| 20260902165548 | 88 | 28 | 1.7 | 9.6 | 0.00 | 0.00 | 0.00 | 35 | 1014.8 |
| 20260902165048 | 88 | 84 | 4.3 | 9.6 | 0.00 | 0.00 | 0.00 | 35 | 1014.8 |
| 20260902164547 | 88 | 119 | 2.6 | 11.3 | 0.00 | 0.00 | 0.00 | 35 | 1014.9 |
| 20260902164046 | 89 | 30 | 6.1 | 13.0 | 0.00 | 0.00 | 0.00 | 35 | 1015.0 |
| 20260902163547 | 89 | 40 | 7.0 | 13.0 | 0.00 | 0.00 | 0.00 | 35 | 1015.0 |
| 20260902163047 | 89 | 30 | 4.3 | 11.3 | 0.00 | 0.00 | 0.00 | 35 | 1015.1 |
| 20260902162549 | 90 | 29 | 6.1 | 11.3 | 0.00 | 0.00 | 0.00 | 34 | 1015.1 |
| 20260902162047 | 90 | 21 | 3.5 | 11.3 | 0.00 | 0.00 | 0.00 | 34 | 1015.1 |
| 20260902161556 | 90 | 71 | 5.2 | 13.0 | 0.00 | 0.00 | 0.00 | 34 | 1015.1 |
| 20260902161045 | 91 | 49 | 7.0 | 13.0 | 0.00 | 0.00 | 0.00 | 34 | 1015.1 |
| 20260902160545 | 91 | 42 | 4.3 | 13.0 | 0.00 | 0.00 | 0.00 | 34 | 1015.2 |
| 20260902160049 | 91 | 66 | 8.7 | 14.8 | 0.00 | 0.00 | 0.00 | 33 | 1015.2 |
| 20260902155544 | 91 | 47 | 4.3 | 11.3 | 0.00 | 0.00 | 0.00 | 33 | 1015.1 |
| 20260902155045 | 91 | 84 | 4.3 | 11.3 | 0.00 | 0.00 | 0.00 | 33 | 1015.2 |
| 20260902154544 | 91 | 34 | 6.1 | 11.3 | 0.00 | 0.00 | 0.00 | 33 | 1015.1 |
| 20260902154042 | 92 | 63 | 3.5 | 11.3 | 0.00 | 0.00 | 0.00 | 33 | 1015.1 |
| 20260902153542 | 92 | 39 | 2.6 | 11.3 | 0.00 | 0.00 | 0.00 | 33 | 1015.1 |
| 20260902153041 | 91 | 83 | 6.1 | 12.2 | 0.00 | 0.00 | 0.00 | 33 | 1015.1 |
| 20260902152540 | 91 | 76 | 6.1 | 14.8 | 0.00 | 0.00 | 0.00 | 33 | 1015.1 |
| 20260902152039 | 91 | 67 | 8.7 | 14.8 | 0.00 | 0.00 | 0.00 | 33 | 1015.1 |
| 20260902151538 | 92 | 117 | 8.7 | 15.6 | 0.00 | 0.00 | 0.00 | 33 | 1015.1 |
| 20260902151036 | 92 | 36 | 9.6 | 15.6 | 0.00 | 0.00 | 0.00 | 32 | 1015.2 |
| 20260902150537 | 92 | 86 | 8.7 | 14.8 | 0.00 | 0.00 | 0.00 | 32 | 1015.1 |
| 20260902150037 | 92 | 50 | 6.1 | 14.8 | 0.00 | 0.00 | 0.00 | 32 | 1015.1 |
| 20260902145533 | 93 | 68 | 4.3 | 14.8 | 0.00 | 0.00 | 0.00 | 32 | 1015.1 |
| 20260902145032 | 92 | 86 | 9.6 | 17.4 | 0.00 | 0.00 | 0.00 | 32 | 1015.3 |
| 20260902144535 | 92 | 73 | 10.4 | 19.1 | 0.00 | 0.00 | 0.00 | 32 | 1015.2 |
| 20260902144031 | 92 | 47 | 9.6 | 19.1 | 0.00 | 0.00 | 0.00 | 31 | 1015.1 |
| 20260902143532 | 93 | 98 | 11.3 | 17.4 | 0.00 | 0.00 | 0.00 | 31 | 1015.0 |
| 20260902143031 | 93 | 57 | 10.4 | 15.6 | 0.00 | 0.00 | 0.00 | 31 | 1015.0 |
| 20260902142532 | 93 | 75 | 7.8 | 18.2 | 0.00 | 0.00 | 0.00 | 31 | 1015.0 |
| 20260902142030 | 92 | 68 | 12.2 | 19.1 | 0.00 | 0.00 | 0.00 | 31 | 1015.2 |
| 20260902141529 | 93 | 65 | 13.0 | 19.1 | 0.00 | 0.00 | 0.00 | 31 | 1015.3 |
| 20260902141029 | 93 | 103 | 8.7 | 18.2 | 0.00 | 0.00 | 0.00 | 31 | 1015.3 |
| 20260902140529 | 93 | 16 | 7.8 | 17.4 | 0.00 | 0.00 | 0.00 | 31 | 1015.4 |
| 20260902140034 | 92 | 94 | 9.6 | 23.5 | 0.00 | 0.00 | 0.00 | 31 | 1015.4 |
| 20260902135528 | 93 | 86 | 12.2 | 23.5 | 0.00 | 0.00 | 0.00 | 30 | 1015.4 |
| 20260902135028 | 93 | 46 | 7.8 | 20.9 | 0.00 | 0.00 | 0.00 | 30 | 1015.3 |
| 20260902134529 | 92 | 42 | 10.4 | 20.9 | 0.00 | 0.00 | 0.00 | 30 | 1015.4 |
| 20260902134029 | 92 | 99 | 12.2 | 20.0 | 0.00 | 0.00 | 0.00 | 30 | 1015.4 |
| 20260902133527 | 93 | 101 | 12.2 | 20.0 | 0.00 | 0.00 | 0.00 | 30 | 1015.4 |
| 20260902133032 | 93 | 86 | 13.0 | 21.7 | 0.00 | 0.00 | 0.00 | 30 | 1015.4 |
| 20260902132530 | 93 | 79 | 10.4 | 21.7 | 0.00 | 0.00 | 0.00 | 30 | 1015.4 |
| 20260902132026 | 93 | 142 | 13.0 | 23.5 | 0.00 | 0.00 | 0.00 | 29 | 1015.5 |
| 20260902131535 | 94 | 88 | 11.3 | 20.9 | 0.00 | 0.00 | 0.00 | 29 | 1015.5 |
| 20260902131026 | 94 | 69 | 12.2 | 21.7 | 0.00 | 0.00 | 0.00 | 29 | 1015.6 |
| 20260902130526 | 94 | 75 | 13.0 | 21.7 | 0.00 | 0.00 | 0.00 | 28 | 1015.6 |
| 20260902130025 | 94 | 52 | 8.7 | 21.7 | 0.00 | 0.00 | 0.00 | 29 | 1015.5 |
| 20260902125526 | 94 | 63 | 13.0 | 21.7 | 0.00 | 0.00 | 0.00 | 29 | 1015.6 |
| 20260902125025 | 94 | 97 | 12.2 | 21.7 | 0.00 | 0.00 | 0.00 | 29 | 1015.5 |
| 20260902124530 | 94 | 93 | 12.2 | 26.1 | 0.00 | 0.00 | 0.00 | 28 | 1015.6 |
| 20260902124023 | 94 | 79 | 15.6 | 26.1 | 0.00 | 0.00 | 0.00 | 28 | 1015.5 |
| 20260902123524 | 94 | 77 | 10.4 | 24.3 | 0.00 | 0.00 | 0.00 | 29 | 1015.7 |
| 20260902123023 | 93 | 57 | 12.2 | 25.2 | 0.00 | 0.00 | 0.00 | 29 | 1015.6 |
| 20260902122523 | 94 | 60 | 13.0 | 23.5 | 0.00 | 0.00 | 0.00 | 29 | 1015.7 |
| 20260902122023 | 94 | 89 | 14.8 | 23.5 | 0.00 | 0.00 | 0.00 | 28 | 1015.8 |
| 20260902121522 | 94 | 137 | 13.0 | 20.9 | 0.00 | 0.00 | 0.00 | 28 | 1015.9 |
| 20260902121021 | 94 | 121 | 8.7 | 20.0 | 0.00 | 0.00 | 0.00 | 28 | 1015.8 |
| 20260902120521 | 94 | 56 | 12.2 | 20.0 | 0.00 | 0.00 | 0.00 | 28 | 1016.0 |
| 20260902120025 | 94 | 59 | 10.4 | 22.6 | 0.00 | 0.00 | 0.00 | 28 | 1016.1 |
| 20260902115523 | 94 | 42 | 12.2 | 22.6 | 0.00 | 0.00 | 0.00 | 28 | 1016.0 |
| 20260902115020 | 94 | 85 | 8.7 | 21.7 | 0.00 | 0.00 | 0.00 | 28 | 1016.1 |
| 20260902114535 | 94 | 123 | 13.0 | 23.5 | 0.00 | 0.00 | 0.00 | 28 | 1016.1 |
| 20260902114018 | 94 | 79 | 13.9 | 23.5 | 0.00 | 0.00 | 0.00 | 28 | 1016.1 |
| 20260902113519 | 94 | 21 | 8.7 | 24.3 | 0.00 | 0.00 | 0.00 | 28 | 1016.2 |
| 20260902113019 | 93 | 72 | 13.9 | 26.9 | 0.00 | 0.00 | 0.00 | 28 | 1016.3 |
| 20260902112518 | 93 | 45 | 10.4 | 26.9 | 0.00 | 0.00 | 0.00 | 28 | 1016.2 |
| 20260902112019 | 93 | 73 | 14.8 | 27.8 | 0.00 | 0.00 | 0.00 | 28 | 1016.2 |
| 20260902111520 | 94 | 98 | 12.2 | 25.2 | 0.00 | 0.00 | 0.00 | 28 | 1016.3 |
| 20260902111018 | 94 | 32 | 11.3 | 25.2 | 0.00 | 0.00 | 0.00 | 28 | 1016.4 |
| 20260902110518 | 93 | 83 | 13.0 | 25.2 | 0.00 | 0.00 | 0.00 | 27 | 1016.3 |
| 20260902110025 | 93 | 93 | 15.6 | 25.2 | 0.00 | 0.00 | 0.00 | 27 | 1016.4 |
| 20260902105518 | 94 | 44 | 12.2 | 26.1 | 0.00 | 0.00 | 0.00 | 27 | 1016.5 |
| 20260902105018 | 93 | 77 | 10.4 | 26.1 | 0.00 | 0.00 | 0.00 | 27 | 1016.5 |
| 20260902104531 | 93 | 84 | 16.5 | 26.1 | 0.00 | 0.00 | 0.00 | 27 | 1016.4 |
| 20260902104017 | 94 | 102 | 13.0 | 24.3 | 0.00 | 0.00 | 0.00 | 26 | 1016.6 |
| 20260902103516 | 94 | 117 | 13.9 | 26.1 | 0.00 | 0.00 | 0.00 | 26 | 1016.6 |
| 20260902103022 | 94 | 88 | 18.2 | 26.1 | 0.00 | 0.00 | 0.00 | 26 | 1016.5 |
| 20260902102521 | 94 | 47 | 11.3 | 21.7 | 0.00 | 0.00 | 0.00 | 27 | 1016.6 |
| 20260902102016 | 93 | 63 | 8.7 | 25.2 | 0.00 | 0.00 | 0.00 | 27 | 1016.7 |
| 20260902101517 | 94 | 88 | 13.9 | 25.2 | 0.00 | 0.00 | 0.00 | 27 | 1016.6 |
| 20260902101014 | 94 | 110 | 6.1 | 21.7 | 0.00 | 0.00 | 0.00 | 27 | 1016.7 |
| 20260902100513 | 94 | 34 | 12.2 | 21.7 | 0.00 | 0.00 | 0.00 | 27 | 1016.7 |
| 20260902100012 | 94 | 45 | 10.4 | 20.0 | 0.00 | 0.00 | 0.00 | 28 | 1016.8 |
| 20260902095511 | 93 | 49 | 9.6 | 21.7 | 0.00 | 0.00 | 0.00 | 28 | 1016.8 |
| 20260902095011 | 93 | 25 | 12.2 | 21.7 | 0.00 | 0.00 | 0.00 | 29 | 1016.8 |
| 20260902094507 | 93 | 81 | 13.9 | 25.2 | 0.00 | 0.00 | 0.00 | 28 | 1016.8 |
| 20260902094006 | 93 | 107 | 13.9 | 26.9 | 0.00 | 0.00 | 0.00 | 28 | 1016.9 |
| 20260902093503 | 93 | 89 | 10.4 | 26.9 | 0.00 | 0.00 | 0.00 | 29 | 1016.8 |
| 20260902093002 | 93 | 97 | 10.4 | 28.7 | 0.00 | 0.00 | 0.00 | 29 | 1016.8 |
| 20260902092501 | 92 | 86 | 13.9 | 28.7 | 0.00 | 0.00 | 0.00 | 29 | 1016.8 |
| 20260902092103 | 92 | 52 | 12.2 | 23.5 | 0.00 | 0.00 | 0.00 | 30 | 1016.7 |
| 20260902091558 | 92 | 54 | 11.3 | 23.5 | 0.00 | 0.00 | 0.00 | 29 | 1016.7 |
| 20260902091058 | 93 | 47 | 13.9 | 27.8 | 0.00 | 0.00 | 0.00 | 29 | 1016.6 |
| 20260902090556 | 92 | 28 | 17.4 | 27.8 | 0.00 | 0.00 | 0.00 | 30 | 1016.5 |
| 20260902090100 | 92 | 86 | 12.2 | 24.3 | 0.00 | 0.00 | 0.00 | 30 | 1016.5 |
| 20260902085554 | 92 | 67 | 13.0 | 22.6 | 0.00 | 0.00 | 0.00 | 30 | 1016.4 |
| 20260902085050 | 92 | 57 | 14.8 | 23.5 | 0.00 | 0.00 | 0.00 | 32 | 1016.4 |
| 20260902084549 | 92 | 68 | 13.9 | 23.5 | 0.00 | 0.00 | 0.00 | 31 | 1016.5 |
| 20260902084048 | 92 | 55 | 10.4 | 20.0 | 0.00 | 0.00 | 0.00 | 32 | 1016.5 |
| 20260902083546 | 92 | 355 | 10.4 | 22.6 | 0.00 | 0.00 | 0.00 | 33 | 1016.5 |
| 20260902083046 | 91 | 69 | 11.3 | 20.9 | 0.00 | 0.00 | 0.00 | 32 | 1016.4 |
| 20260902082543 | 92 | 27 | 12.2 | 24.3 | 0.00 | 0.00 | 0.00 | 32 | 1016.4 |
| 20260902082042 | 92 | 14 | 9.6 | 24.3 | 0.00 | 0.00 | 0.00 | 33 | 1016.4 |
| 20260902081543 | 91 | 63 | 9.6 | 19.1 | 0.00 | 0.00 | 0.00 | 33 | 1016.4 |
| 20260902081040 | 91 | 47 | 12.2 | 21.7 | 0.00 | 0.00 | 0.00 | 33 | 1016.4 |
| 20260902080538 | 90 | 67 | 11.3 | 21.7 | 0.00 | 0.00 | 0.00 | 34 | 1016.5 |
| 20260902080037 | 90 | 83 | 11.3 | 21.7 | 0.00 | 0.00 | 0.00 | 34 | 1016.5 |
| 20260902075536 | 90 | 80 | 8.7 | 21.7 | 0.00 | 0.00 | 0.00 | 35 | 1016.6 |
| 20260902075035 | 90 | 67 | 10.4 | 20.9 | 0.00 | 0.00 | 0.00 | 34 | 1016.5 |
| 20260902074543 | 90 | 59 | 9.6 | 20.9 | 0.00 | 0.00 | 0.00 | 34 | 1016.5 |
| 20260902074032 | 90 | 52 | 10.4 | 21.7 | 0.00 | 0.00 | 0.00 | 34 | 1016.6 |
| 20260902073530 | 89 | 30 | 12.2 | 22.6 | 0.00 | 0.00 | 0.00 | 34 | 1016.6 |
| 20260902073028 | 89 | 159 | 9.6 | 22.6 | 0.00 | 0.00 | 0.00 | 35 | 1016.6 |
| 20260902072526 | 89 | 29 | 8.7 | 19.1 | 0.00 | 0.00 | 0.00 | 35 | 1016.6 |
| 20260902072026 | 89 | 40 | 8.7 | 17.4 | 0.00 | 0.00 | 0.00 | 36 | 1016.6 |
| 20260902071524 | 89 | 59 | 10.4 | 19.1 | 0.00 | 0.00 | 0.00 | 35 | 1016.6 |
| 20260902071022 | 89 | 44 | 8.7 | 13.9 | 0.00 | 0.00 | 0.00 | 36 | 1016.7 |
| 20260902070521 | 89 | 76 | 6.1 | 14.8 | 0.00 | 0.00 | 0.00 | 36 | 1016.5 |